Regional Weather Roundup
Issued by NWS Green Bay, WI

Home | Current Version | Previous Version | Graphics & Text | Print | Product List | Glossary Off
Versions: 1 2 3 4 5 6 7 8 9 10 11 12 13 14 15 16 17 18 19 20 21 22 23 24 25 26 27 28 29 30 31 32 33 34 35 36 37 38 39 40 41 42 43 44 45 46 47 48 49 50

446
ASUS43 KGRB 291111
RWRGRB

NORTH-CENTRAL AND NORTHEAST WISCONSIN REGIONAL WEATHER ROUNDUP
NATIONAL WEATHER SERVICE GREEN BAY WI
600 AM CDT THU SEP 29 2016

WIZ005-009-010>012-018-019-291200-
NORTH CENTRAL WISCONSIN

CITY           SKY/WX    TMP DP  RH WIND       PRES   REMARKS
IRONWOOD       CLOUDY    50  50 100 CALM      30.46R
MANITOWISH WTR CLOUDY    47  47 100 NE5       30.43R
ARBOR VITAE    MOCLDY    49  48  96 N3        30.42R
EAGLE RIVER    CLOUDY    48  48 100 NE6       30.42R
LAND O LAKES   CLOUDY    49  49 100 NE5       30.44S FOG
RHINELANDER    CLOUDY    47  47 100 N6        30.42R FOG
PHILLIPS       CLEAR     44  44 100 N5        30.41R
ANTIGO         CLEAR     45  45 100 N3        30.38R
TOMAHAWK       CLOUDY    46  46  97 N3        30.41S
MERRILL        CLEAR     45  45 100 N5        30.40R
$$

WIZ013-073-291200-
NORTHEAST WISCONSIN

CITY           SKY/WX    TMP DP  RH WIND       PRES   REMARKS
IRON MOUNTAIN  CLEAR     48  45  89 NW7       30.38R
MARINETTE      CLEAR     53  50  89 N7        30.34R
OCONTO         CLEAR     52  50  92 N6        30.32R
$$

WIZ017-030-035>037-045-291200-
CENTRAL WISCONSIN

CITY           SKY/WX    TMP DP  RH WIND       PRES   REMARKS
MEDFORD        CLEAR    N/A N/A N/A NE6       30.39R
WAUSAU         CLEAR     48  46  93 N5        30.36R
MOSINEE        CLEAR     48  48 100 N10       30.37R
MARSHFIELD     CLEAR     49  45  86 N7        30.36R
WISC RAPIDS    CLEAR     49  48  97 N9        30.35S
STEVENS POINT  CLEAR     45  45 100 N5        30.35S
WAUPACA        CLEAR     51  50  95 N6        30.33R
SHAWANO        CLEAR     53  50  89 NE7       30.34R
CLINTONVILLE   CLEAR     50  48  93 N8        30.33R
WAUTOMA        CLEAR     51  48  89 N8        30.31R
$$

WIZ038-039-048-051-291200-
FOX VALLEY

CITY           SKY/WX    TMP DP  RH WIND       PRES   REMARKS
NWS GREEN BAY  MOCLDY    51  51 100 N8        30.31R
APPLETON       PTCLDY    50  50 100 N10       30.29R
OSHKOSH        CLOUDY    54  51  90 N15G22    30.29R
FOND DU LAC    CLOUDY    56  52  86 N13G22    30.28S
$$

WIZ022-050-052-291200-
EAST CENTRAL WISCONSIN

CITY           SKY/WX    TMP DP  RH WIND       PRES   REMARKS
EPHRAIM        FAIR      57  56  97 N5        30.32R
WASHINGTON ISL PTSUNNY   58  55  89 NE10      30.32R
STURGEON BAY   CLEAR     57  54  89 N7        30.32R
MANITOWOC      CLOUDY    57  54  89 MISG      30.27R
SHEBOYGAN      MOCLDY    56  53  90 N8        30.25R
$$

LMZ563-521-522-541>543-291200-
LAKESHORE

STATION/POSITION TIME  TEMP    WIND        PRES    VSBY  WAVE
                       AIR SEA DIR/SP/G                  HT/PER
                 (UTC) (F)     (DEG/KT/KT) (MB)    (MI)  (FT/S)
SHEBOYGAN LKSHOR 1100   58      10/ 23/ 26 1023.8R
KEWAUNEE LKSHORE 1000   58     360/  9/ 14 1024.5R
NORTHPORT PIER   1000   60      20/ 11/ 16 1026.4R
N MID LAKE BUOY  1050   63 66   40/ 17/ 19 1025.8R         3/ 5
CHAMBERS ISLAND  1000   60     360/ 18/ 22 1025.7S
MENOMINEE LKSHOR 1000   56     360/ 14/ 16 1025.6R
$$




USA.gov is the U.S. government's official web portal to all federal, state and local government web resources and services.